Zurück zum Katalog

DELTA 1 DEB

AktivSSO
NORAD 10845·DEBRIS·🇺🇸 United States

Gestartet Jul 29, 1976 von Vandenberg Space Force Base

Loading…

Nächste Überflüge (nächste 24 Stunden)

TLE

AktuellSource: Space-Track

Epoche: Sep 14, 2026, 13:20 UTC

1 10845U 76077CR  26257.55566747 -.00000043  00000-0 -12538-4 0  9994
2 10845 102.3447 354.8877 0175623  56.0340 319.7284 12.10182561214272

Verfolge DELTA 1 DEB in Echtzeit mit AllMySat

Download on the App Store